C/2010 E3 ( WISE )

Japanese version
Home page
Updated on March 20, 2010

---------------------------------------------------------------------

* Profile

Discovery Date March 5, 2010
Magnitude
Discoverer Wide Field Infrared Survey Explorer (NASA)

* Orbital Elements

T 2010 Apr. 4.326 TT                                    MPC
q   2.27420              (2000.0)            P               Q
                   Peri.   49.974       -0.218474       +0.416021
                   Node   117.328       +0.257963       -0.847773
e   1.0            Incl.   96.480       +0.941129       +0.328949
From 26 observations 2010 Mar. 5-15.

* Magnitudes Graph

        m1 = 15.5 + 5 log d + 10.0 log r

---------------------------------------------------------------------

The orbital elements are published on M.P.E.C. 2010-F01.
The magnitudes graphs are made with Comet for Windows.

---------------------------------------------------------------------

Copyright(C) Seiichi Yoshida (comet@aerith.net). All rights reserved.